Location: Derby
(52.9213°N, 1.4761°W)
Time: 14:36:44
(UTC+01:00)

Vanguard 2 - All Passes

Search period start: 18 May 2025 00:00
Search period end: 28 May 2025 00:00
Orbit: 553 x 2901 km, 32.9° (Epoch: 17 May)

Date Brightness Start Highest point End Pass type
(mag) Time Alt. Az. Time Alt. Az. Time Alt. Az.
18 May - 01:10:44 10° SW 01:20:32 31° S 01:33:39 10° SE visible
18 May - 03:18:59 10° WSW 03:29:27 25° SSW 03:41:51 10° SSE visible
18 May - 05:33:03 10° WSW 05:37:53 12° SW 05:42:52 10° SSW daylight
18 May - 21:15:04 10° SSE 21:17:41 11° SE 21:20:37 10° ESE daylight
18 May - 23:16:49 10° SSW 23:24:25 25° SSE 23:34:53 10° ESE visible
19 May - 01:23:02 10° WSW 01:32:38 30° S 01:45:25 10° SE visible
19 May - 03:31:50 10° WSW 03:41:28 22° SSW 03:52:44 10° SSE visible
19 May - 21:25:31 10° S 21:29:29 14° SE 21:34:15 10° ESE daylight
19 May - 23:28:50 10° SW 23:36:27 26° SSE 23:47:03 10° ESE visible
20 May - 01:35:27 10° WSW 01:44:45 28° S 01:57:01 10° SE visible
20 May - 03:45:01 10° WSW 03:53:27 18° SSW 04:03:08 10° S visible
20 May - 21:36:43 10° S 21:41:21 16° SSE 21:47:11 10° ESE visible
20 May - 23:40:57 10° SW 23:48:31 26° S 23:59:05 10° ESE visible
21 May - 01:47:59 10° WSW 01:56:51 25° SSW 02:08:24 10° SSE visible
21 May - 03:58:48 10° WSW 04:05:25 14° SSW 04:12:46 10° S visible
21 May - 21:48:17 10° SSW 21:53:17 18° SSE 21:59:47 10° ESE visible
21 May - 23:53:11 10° SW 00:00:37 26° S 00:10:59 10° SE visible
22 May - 02:00:41 10° WSW 02:08:58 22° SSW 02:19:30 10° SSE visible
22 May - 04:14:35 10° SW 04:17:22 11° SW 04:20:16 10° SSW visible
22 May - 22:00:04 10° SSW 22:05:16 19° SSE 22:12:10 10° ESE visible
23 May - 00:05:30 10° SW 00:12:45 25° S 00:22:43 10° SE visible
23 May - 02:13:37 10° WSW 02:21:04 19° SSW 02:30:15 10° SSE visible
23 May - 22:12:01 10° SSW 22:17:18 20° SSE 22:24:23 10° SE visible
24 May - 00:17:57 10° SW 00:24:53 23° S 00:34:17 10° SE visible
24 May - 02:27:00 10° SW 02:33:09 15° SSW 02:40:26 10° S visible
24 May - 22:24:07 10° SSW 22:29:22 20° S 22:36:27 10° SE visible
25 May - 00:30:33 10° SW 00:37:02 20° S 00:45:36 10° SSE visible
25 May - 02:41:26 10° SW 02:45:13 12° SSW 02:49:24 10° S visible
25 May - 20:32:59 10° SSE 20:34:45 11° SSE 20:36:41 10° SE daylight
25 May - 22:36:21 10° SW 22:41:29 19° S 22:48:21 10° SE visible
26 May - 00:43:23 10° SW 00:49:12 17° SSW 00:56:36 10° SSE visible
26 May - 20:44:18 10° S 20:46:44 12° SSE 20:49:34 10° SE daylight
26 May - 22:48:43 10° SW 22:53:38 18° S 23:00:04 10° SE visible
27 May - 00:56:35 10° SW 01:01:21 14° SSW 01:07:05 10° S visible
27 May - 20:56:03 10° S 20:58:46 13° SSE 21:01:59 10° SE daylight
27 May - 23:01:16 10° SW 23:05:47 17° S 23:11:34 10° SSE visible
